Location: Larne
(54.8508°N, 5.8183°W)
Time: 12:15:34
(UTC+01:00)

ISS - Pass Details

Date: 30 September 2021
Orbit: 417 x 423 km, 51.6° (Epoch: 16 October)

Event Time Altitude Azimuth Distance (km) Brightness Sun altitude
Rises 19:57:30 0° 272° (W) 2,365 2.4 -8.9°
Reaches altitude 10° 19:59:41 10° 264° (W) 1,501 0.5 -9.2°
Maximum altitude 20:02:49 37° 196° (SSW) 667 -2.7 -9.7°
Enters shadow 20:05:40 12° 129° (SE) 1,389 -1.6 -10.1°
